Tracking 19224 objects as of 22-Jul-2018
HD Live streaming from Space Station
objects crossing your sky now

FENGYUN 1C DEB

Track FENGYUN 1C DEB now!
10-day predictions


NORAD ID: 38162
Int'l Code: 1999-025ERK
Perigee: 696.7 km
Apogee: 1,021.7 km
Inclination: 99.8 °
Period: 102.0 minutes
Semi major axis: 7230 km
RCS: 0.0023 m2 (small)
Launch date: May 10, 1999
Source: People's Republic of China (PRC)
Launch site: Taiyaun Space Center, China (TSC)

Note: This is SATELLITE DEBRIS
aabbcc
Your satellite tracking list
Your tracking list is empty




NASA's NSSDC Master Catalog

Two Line Element Set (TLE):
1 38162U 99025ERK 18174.09526502  .00001307  00000-0  58403-3 0  9999
2 38162  99.7985 140.8069 0224728 172.2188 188.2563 14.12133481450764
Source of the keplerian elements: AFSPC